contact:dominique.lefevre@mio.osupytheas.fr, maurice.libes@osupytheas.fr, didier.mallarino@osupytheas.fr
Project:EMSO http://www.emso-fr.org/EMSO-France
Depth: 2436.0 m
Title:EMSO Ligure Ouest : Data MII capteur AQUADOPP
Date,Latitude,Longitude,X_East,Y_North,Z_Up,Amplitude_X,Amplitude_Y,Amplitude_Z,Batterie,SoundSpeed,Heading,Pitch,Roll,Pressure,TIS,Speed,Direction
, degrees North, degrees East, m.s-1, m.s-1,m.s-1, 1, 1, 1, Volt, m.s-1, degree, degree, degree, dbar, degree_C, m.s-1, degree
2020-01-12T00:04:03,42.805,6.029,0.012,0.037,-0.02,105.0,116.0,101.0,13.4,1505.3,324.8,-0.8,1.8,2470.166,13.31,0.038,18.0
2020-01-12T00:07:03,42.805,6.029,0.018,0.047,-0.026,105.0,116.0,101.0,13.4,1505.3,327.0,-0.7,1.8,2470.213,13.32,0.05,21.0
2020-01-12T00:10:03,42.805,6.029,0.013,0.022,-0.006,104.0,116.0,101.0,13.4,1505.3,327.0,-0.7,1.8,2470.193,13.32,0.025,30.6
2020-01-12T00:13:03,42.805,6.029,-0.005,0.038,-0.012,104.0,115.0,102.0,13.3,1505.3,325.4,-0.7,1.8,2470.215,13.33,0.038,352.5
2020-01-12T00:16:03,42.805,6.029,0.01,0.016,-0.021,105.0,115.0,102.0,13.4,1505.3,326.5,-0.7,1.9,2470.207,13.33,0.018,32.0
2020-01-12T00:19:03,42.805,6.029,0.019,0.043,-0.005,104.0,117.0,101.0,13.4,1505.3,325.6,-0.7,1.9,2470.213,13.33,0.047,23.8
2020-01-12T00:22:03,42.805,6.029,0.022,0.059,-0.001,104.0,116.0,101.0,13.4,1505.3,324.6,-0.7,1.8,2470.139,13.33,0.062,20.4
2020-01-12T00:25:03,42.805,6.029,-0.009,0.04,-0.033,103.0,117.0,101.0,13.4,1505.3,327.3,-0.7,1.8,2470.178,13.33,0.041,347.3
2020-01-12T00:28:03,42.805,6.029,0.008,0.058,0.0,104.0,117.0,100.0,13.3,1505.3,325.6,-0.7,1.9,2470.197,13.33,0.058,7.8
2020-01-12T00:31:03,42.805,6.029,0.027,0.061,0.006,105.0,118.0,100.0,13.4,1505.3,327.0,-0.7,1.8,2470.169,13.33,0.066,23.9
2020-01-12T00:34:03,42.805,6.029,-0.02,0.053,-0.047,104.0,117.0,103.0,13.4,1505.3,327.1,-0.7,1.8,2470.169,13.33,0.056,339.3
2020-01-12T00:37:03,42.805,6.029,0.005,0.05,-0.036,103.0,117.0,102.0,13.4,1505.3,323.8,-0.7,1.8,2470.131,13.33,0.05,5.7
2020-01-12T00:40:03,42.805,6.029,0.008,0.023,-0.028,104.0,119.0,101.0,13.4,1505.3,326.6,-0.7,1.8,2470.124,13.33,0.024,19.2
2020-01-12T00:43:03,42.805,6.029,-0.018,0.053,-0.04,104.0,117.0,102.0,13.3,1505.3,324.7,-0.7,1.8,2470.138,13.33,0.055,341.2
2020-01-12T00:46:03,42.805,6.029,-0.004,0.028,-0.019,104.0,115.0,101.0,13.4,1505.3,325.4,-0.7,1.8,2470.153,13.33,0.028,351.9
2020-01-12T00:49:03,42.805,6.029,0.0,0.045,-0.034,104.0,114.0,102.0,13.4,1505.3,324.6,-0.7,1.8,2470.142,13.33,0.045,0.0
2020-01-12T00:52:03,42.805,6.029,-0.022,0.054,-0.023,104.0,118.0,101.0,13.4,1505.3,325.5,-0.7,1.8,2470.15,13.33,0.058,337.8
2020-01-12T00:55:03,42.805,6.029,0.0,0.041,-0.008,104.0,113.0,102.0,13.4,1505.3,328.8,-0.7,1.8,2470.161,13.33,0.041,0.0
2020-01-12T00:58:03,42.805,6.029,-0.016,0.024,-0.044,102.0,114.0,101.0,13.4,1505.3,324.7,-0.7,1.9,2470.131,13.33,0.028,326.3
2020-01-12T01:04:03,42.805,6.029,-0.006,0.035,-0.015,106.0,116.0,102.0,13.3,1505.3,323.8,-0.7,1.8,2470.147,13.31,0.035,350.3
2020-01-12T01:07:02,42.805,6.029,0.021,0.028,-0.009,105.0,114.0,102.0,13.3,1505.3,325.4,-0.7,1.8,2470.138,13.32,0.035,36.9
2020-01-12T01:10:03,42.805,6.029,-0.015,0.035,-0.03,103.0,116.0,100.0,13.3,1505.3,325.8,-0.7,1.8,2470.142,13.33,0.038,336.8
2020-01-12T01:13:03,42.805,6.029,-0.006,0.042,-0.033,105.0,115.0,100.0,13.4,1505.3,323.6,-0.7,1.8,2470.084,13.33,0.042,351.9
2020-01-12T01:16:03,42.805,6.029,-0.001,0.054,0.005,105.0,113.0,101.0,13.4,1505.3,323.2,-0.7,1.8,2470.099,13.33,0.054,358.9
2020-01-12T01:19:03,42.805,6.029,0.0,0.02,-0.04,105.0,114.0,101.0,13.3,1505.3,327.8,-0.7,1.8,2470.145,13.33,0.02,0.0
2020-01-12T01:22:03,42.805,6.029,-0.016,0.019,-0.038,103.0,113.0,100.0,13.3,1505.3,327.0,-0.7,1.9,2470.173,13.33,0.024,319.9
2020-01-12T01:25:03,42.805,6.029,0.02,0.028,-0.017,103.0,114.0,101.0,13.4,1505.3,327.1,-0.7,1.8,2470.128,13.33,0.034,35.5
2020-01-12T01:28:03,42.805,6.029,-0.016,0.034,-0.016,104.0,113.0,100.0,13.4,1505.3,323.7,-0.7,1.8,2470.142,13.33,0.037,334.8
2020-01-12T01:31:03,42.805,6.029,0.023,0.046,-0.001,103.0,112.0,100.0,13.4,1505.3,327.9,-0.7,1.8,2470.122,13.33,0.051,26.6
2020-01-12T01:34:03,42.805,6.029,0.002,0.042,-0.015,100.0,112.0,101.0,13.4,1505.3,324.9,-0.7,1.8,2470.145,13.33,0.042,2.7
2020-01-12T01:37:03,42.805,6.029,-0.008,0.056,-0.015,103.0,111.0,100.0,13.4,1505.3,324.0,-0.8,1.8,2470.108,13.33,0.056,351.9
2020-01-12T01:40:03,42.805,6.029,-0.005,0.04,-0.035,101.0,115.0,100.0,13.4,1505.3,326.2,-0.7,1.8,2470.164,13.33,0.04,352.9
2020-01-12T01:43:03,42.805,6.029,0.0,0.034,-0.021,102.0,113.0,99.0,13.3,1505.3,323.3,-0.8,1.8,2470.154,13.33,0.034,0.0
2020-01-12T01:46:03,42.805,6.029,0.0,0.049,-0.039,102.0,113.0,99.0,13.4,1505.3,326.8,-0.7,1.8,2470.111,13.33,0.049,0.0
2020-01-12T01:49:03,42.805,6.029,0.016,0.027,-0.061,102.0,114.0,99.0,13.4,1505.3,327.0,-0.7,1.8,2470.17,13.33,0.031,30.7
2020-01-12T01:52:03,42.805,6.029,0.024,0.037,-0.023,101.0,113.0,99.0,13.4,1505.3,324.5,-0.7,1.9,2470.125,13.33,0.044,33.0
2020-01-12T01:55:03,42.805,6.029,-0.007,0.042,-0.042,102.0,113.0,100.0,13.4,1505.3,326.7,-0.7,1.8,2470.115,13.33,0.042,350.5
2020-01-12T01:58:03,42.805,6.029,0.013,0.033,-0.031,103.0,114.0,99.0,13.4,1505.3,327.2,-0.7,1.8,2470.135,13.33,0.035,21.5
2020-01-12T02:04:03,42.805,6.029,-0.011,0.066,-0.011,102.0,112.0,100.0,13.3,1505.3,326.5,-0.8,1.8,2470.125,13.31,0.066,350.5
2020-01-12T02:07:03,42.805,6.029,0.004,0.047,-0.031,103.0,112.0,100.0,13.4,1505.3,326.6,-0.7,1.8,2470.117,13.32,0.047,4.9
2020-01-12T02:10:03,42.805,6.029,0.039,0.034,-0.016,102.0,115.0,97.0,13.4,1505.3,325.6,-0.7,1.8,2470.137,13.33,0.051,48.9
2020-01-12T02:13:03,42.805,6.029,-0.013,0.023,-0.038,101.0,112.0,100.0,13.4,1505.3,323.2,-0.7,1.8,2470.154,13.33,0.026,330.5
2020-01-12T02:16:03,42.805,6.029,0.013,0.05,-0.048,101.0,114.0,99.0,13.4,1505.3,325.3,-0.7,1.8,2470.113,13.33,0.051,14.6
2020-01-12T02:19:03,42.805,6.029,0.01,0.048,-0.037,102.0,114.0,99.0,13.4,1505.3,325.4,-0.7,1.8,2470.165,13.33,0.049,11.8
2020-01-12T02:22:03,42.805,6.029,0.004,0.04,-0.034,102.0,114.0,100.0,13.4,1505.3,328.0,-0.7,1.8,2470.143,13.33,0.04,5.7
2020-01-12T02:25:03,42.805,6.029,0.015,0.028,-0.007,102.0,113.0,100.0,13.4,1505.3,323.3,-0.7,1.9,2470.146,13.33,0.031,28.2
2020-01-12T02:28:03,42.805,6.029,-0.015,0.042,-0.042,101.0,114.0,100.0,13.3,1505.3,324.1,-0.7,1.8,2470.14,13.33,0.044,340.4
2020-01-12T02:31:03,42.805,6.029,0.011,0.028,-0.052,103.0,113.0,101.0,13.4,1505.3,324.7,-0.7,1.8,2470.124,13.33,0.03,21.4
2020-01-12T02:34:03,42.805,6.029,0.004,0.023,-0.036,101.0,113.0,101.0,13.3,1505.4,325.1,-0.7,1.9,2470.119,13.34,0.023,9.9
2020-01-12T02:37:03,42.805,6.029,0.014,0.036,-0.017,102.0,113.0,101.0,13.3,1505.4,327.6,-0.7,1.8,2470.099,13.34,0.038,21.2
2020-01-12T02:40:03,42.805,6.029,0.009,0.025,-0.047,102.0,111.0,100.0,13.3,1505.4,323.2,-0.7,1.8,2470.107,13.34,0.026,19.8
2020-01-12T02:43:03,42.805,6.029,-0.009,0.023,-0.053,102.0,112.0,100.0,13.4,1505.4,326.9,-0.7,1.8,2470.127,13.34,0.024,338.6
2020-01-12T02:46:03,42.805,6.029,0.004,0.026,0.004,101.0,114.0,99.0,13.3,1505.4,325.3,-0.7,1.8,2470.124,13.34,0.026,8.7
2020-01-12T02:49:03,42.805,6.029,0.02,0.021,-0.024,102.0,114.0,98.0,13.3,1505.4,327.6,-0.7,1.8,2470.14,13.34,0.028,43.6
2020-01-12T02:52:03,42.805,6.029,0.006,0.048,-0.039,101.0,112.0,99.0,13.3,1505.4,323.3,-0.7,1.9,2470.126,13.34,0.048,7.1
2020-01-12T02:55:03,42.805,6.029,-0.004,0.028,-0.029,101.0,111.0,101.0,13.4,1505.4,324.1,-0.7,1.8,2470.124,13.34,0.028,351.9
2020-01-12T02:58:03,42.805,6.029,-0.004,0.048,-0.026,100.0,111.0,99.0,13.3,1505.4,326.1,-0.7,1.8,2470.118,13.34,0.048,355.2
2020-01-12T03:04:03,42.805,6.029,0.009,0.026,-0.031,101.0,112.0,99.0,13.4,1505.3,327.9,-0.7,1.8,2470.163,13.32,0.027,19.1
2020-01-12T03:07:03,42.805,6.029,-0.011,0.031,-0.057,102.0,112.0,99.0,13.3,1505.3,325.3,-0.7,1.8,2470.212,13.33,0.032,340.5
2020-01-12T03:10:03,42.805,6.029,0.016,0.049,-0.037,103.0,112.0,98.0,13.4,1505.3,324.5,-0.7,1.8,2470.151,13.33,0.051,18.1
2020-01-12T03:13:03,42.805,6.029,0.0,0.042,-0.051,101.0,112.0,99.0,13.3,1505.3,327.3,-0.7,1.8,2470.123,13.33,0.042,0.0
2020-01-12T03:16:03,42.805,6.029,-0.011,0.04,-0.047,101.0,111.0,100.0,13.4,1505.3,324.8,-0.7,1.8,2470.112,13.33,0.041,344.6
2020-01-12T03:19:03,42.805,6.029,0.001,0.02,-0.023,100.0,113.0,99.0,13.4,1505.4,327.1,-0.7,1.9,2470.156,13.34,0.02,2.9
2020-01-12T03:22:03,42.805,6.029,-0.01,0.039,-0.046,102.0,114.0,99.0,13.4,1505.4,328.1,-0.7,1.8,2470.148,13.34,0.04,345.6
2020-01-12T03:25:03,42.805,6.029,0.021,0.033,-0.056,100.0,112.0,99.0,13.4,1505.4,327.5,-0.7,1.8,2470.164,13.34,0.039,32.5
2020-01-12T03:28:03,42.805,6.029,0.015,0.02,-0.047,101.0,112.0,100.0,13.4,1505.4,326.7,-0.7,1.8,2470.179,13.34,0.025,36.9
2020-01-12T03:31:03,42.805,6.029,-0.004,0.041,-0.036,101.0,112.0,99.0,13.3,1505.4,323.2,-0.7,1.7,2470.157,13.34,0.041,354.4
2020-01-12T03:34:03,42.805,6.029,-0.017,0.03,-0.045,102.0,112.0,98.0,13.4,1505.4,323.1,-0.7,1.8,2470.195,13.34,0.034,330.5
2020-01-12T03:37:03,42.805,6.029,0.006,0.013,-0.069,103.0,112.0,100.0,13.4,1505.4,326.6,-0.7,1.9,2470.133,13.34,0.014,24.8
2020-01-12T03:40:03,42.805,6.029,0.015,0.023,-0.018,102.0,112.0,99.0,13.4,1505.4,327.6,-0.7,1.8,2470.145,13.34,0.027,33.1
2020-01-12T03:43:03,42.805,6.029,0.014,0.014,-0.012,102.0,112.0,100.0,13.3,1505.4,328.1,-0.8,1.8,2470.157,13.34,0.019,45.0
2020-01-12T03:46:03,42.805,6.029,-0.001,0.025,-0.015,104.0,111.0,101.0,13.3,1505.4,327.6,-0.7,1.8,2470.122,13.34,0.025,357.7
2020-01-12T03:52:02,42.805,6.029,0.016,0.033,-0.012,101.0,113.0,99.0,13.3,1505.3,326.3,-0.8,1.8,2470.259,13.32,0.036,25.9
2020-01-12T03:55:03,42.805,6.029,0.008,0.026,-0.006,102.0,112.0,100.0,13.4,1505.3,323.8,-0.7,1.9,2470.197,13.32,0.027,17.1
2020-01-12T03:58:03,42.805,6.029,0.007,0.056,-0.021,103.0,112.0,100.0,13.4,1505.3,325.3,-0.7,1.8,2470.16,13.33,0.056,7.1
2020-01-12T04:04:03,42.805,6.029,-0.004,0.02,0.0,101.0,113.0,99.0,13.3,1505.3,324.6,-0.8,1.8,2470.19,13.32,0.02,348.7
2020-01-12T04:07:03,42.805,6.029,-0.003,0.016,-0.042,102.0,111.0,100.0,13.3,1505.3,323.5,-0.7,1.8,2470.19,13.32,0.016,349.4
2020-01-12T04:10:03,42.805,6.029,0.008,0.046,-0.048,102.0,112.0,98.0,13.3,1505.3,326.2,-0.7,1.8,2470.194,13.33,0.046,9.9
2020-01-12T04:13:03,42.805,6.029,-0.025,0.027,-0.006,101.0,111.0,100.0,13.4,1505.3,324.8,-0.7,1.8,2470.22,13.33,0.036,317.2
2020-01-12T04:16:03,42.805,6.029,0.026,0.032,-0.052,103.0,111.0,99.0,13.3,1505.3,326.4,-0.7,1.8,2470.151,13.33,0.041,39.1
2020-01-12T04:19:03,42.805,6.029,0.013,0.027,-0.043,103.0,113.0,102.0,13.4,1505.3,327.2,-0.7,1.8,2470.178,13.33,0.029,25.7
2020-01-12T04:22:03,42.805,6.029,0.033,0.044,-0.016,103.0,111.0,99.0,13.4,1505.4,325.5,-0.7,1.8,2470.22,13.34,0.055,36.9
2020-01-12T04:25:03,42.805,6.029,-0.008,0.013,-0.047,101.0,111.0,100.0,13.4,1505.3,324.7,-0.7,1.9,2470.237,13.33,0.015,328.4
2020-01-12T04:28:03,42.805,6.029,-0.023,0.041,-0.019,103.0,112.0,100.0,13.4,1505.4,326.5,-0.7,1.8,2470.213,13.34,0.047,330.7
2020-01-12T04:31:03,42.805,6.029,0.001,0.02,-0.055,102.0,111.0,100.0,13.4,1505.4,324.4,-0.7,1.8,2470.207,13.34,0.02,2.9
2020-01-12T04:34:03,42.805,6.029,-0.006,0.032,-0.046,103.0,111.0,99.0,13.4,1505.4,327.5,-0.7,1.8,2470.215,13.34,0.032,349.4
2020-01-12T04:37:03,42.805,6.029,0.003,0.026,-0.031,103.0,112.0,101.0,13.4,1505.3,326.0,-0.7,1.9,2470.206,13.33,0.026,6.6
2020-01-12T04:40:03,42.805,6.029,-0.008,0.033,-0.051,102.0,112.0,99.0,13.4,1505.3,324.7,-0.7,1.8,2470.227,13.33,0.033,346.4
2020-01-12T04:43:03,42.805,6.029,0.003,0.024,-0.043,102.0,112.0,101.0,13.3,1505.3,328.2,-0.7,1.8,2470.22,13.33,0.024,7.1
2020-01-12T04:46:03,42.805,6.029,-0.008,0.021,-0.072,105.0,111.0,99.0,13.4,1505.3,323.7,-0.7,1.8,2470.19,13.33,0.022,339.1
2020-01-12T04:49:03,42.805,6.029,0.03,0.005,-0.028,103.0,111.0,101.0,13.3,1505.3,324.9,-0.7,1.9,2470.222,13.33,0.03,80.5
2020-01-12T04:52:03,42.805,6.029,-0.006,0.017,-0.038,102.0,111.0,100.0,13.4,1505.3,327.8,-0.7,1.8,2470.253,13.33,0.018,340.6
2020-01-12T04:55:03,42.805,6.029,0.018,0.024,-0.033,102.0,111.0,100.0,13.4,1505.3,324.7,-0.7,1.8,2470.204,13.33,0.03,36.9
2020-01-12T04:58:03,42.805,6.029,0.001,0.021,-0.062,102.0,113.0,100.0,13.3,1505.3,323.7,-0.7,1.9,2470.253,13.33,0.021,2.7
2020-01-12T05:04:03,42.805,6.029,-0.002,0.036,-0.025,103.0,112.0,100.0,13.4,1505.3,324.5,-0.8,1.8,2470.261,13.31,0.036,356.8
2020-01-12T05:07:03,42.805,6.029,0.007,0.04,-0.023,103.0,113.0,99.0,13.3,1505.3,324.3,-0.7,1.9,2470.261,13.32,0.04,9.9
2020-01-12T05:10:03,42.805,6.029,0.023,0.029,-0.054,103.0,112.0,100.0,13.3,1505.3,326.5,-0.7,1.8,2470.27,13.33,0.037,38.4
2020-01-12T05:13:03,42.805,6.029,0.013,0.021,-0.038,101.0,112.0,100.0,13.4,1505.3,327.8,-0.7,1.8,2470.26,13.33,0.024,31.8
2020-01-12T05:16:03,42.805,6.029,0.009,0.036,-0.01,103.0,112.0,100.0,13.4,1505.3,325.8,-0.7,1.9,2470.278,13.33,0.037,14.0
2020-01-12T05:19:03,42.805,6.029,0.017,0.024,-0.033,102.0,111.0,99.0,13.4,1505.3,326.6,-0.7,1.9,2470.253,13.33,0.029,35.3
2020-01-12T05:22:03,42.805,6.029,-0.009,0.017,-0.062,103.0,112.0,99.0,13.4,1505.3,327.0,-0.7,1.9,2470.271,13.33,0.019,332.1
2020-01-12T05:25:03,42.805,6.029,0.011,0.026,-0.031,102.0,113.0,99.0,13.3,1505.3,325.9,-0.7,1.8,2470.291,13.33,0.028,22.9
2020-01-12T05:28:03,42.805,6.029,-0.006,0.023,-0.05,102.0,112.0,100.0,13.4,1505.3,325.7,-0.7,1.8,2470.264,13.33,0.023,345.4
2020-01-12T05:31:03,42.805,6.029,0.009,0.017,-0.038,102.0,111.0,99.0,13.3,1505.4,324.9,-0.7,1.9,2470.287,13.34,0.019,27.9
2020-01-12T05:34:03,42.805,6.029,0.004,0.042,-0.016,101.0,111.0,100.0,13.4,1505.4,326.4,-0.7,1.9,2470.3,13.34,0.042,5.4
2020-01-12T05:37:03,42.805,6.029,-0.014,0.032,-0.031,101.0,112.0,100.0,13.4,1505.3,326.9,-0.7,1.8,2470.358,13.33,0.034,336.4
2020-01-12T05:40:03,42.805,6.029,-0.005,0.026,-0.023,101.0,111.0,99.0,13.3,1505.3,324.1,-0.7,1.8,2470.351,13.33,0.026,349.1
2020-01-12T05:43:03,42.805,6.029,-0.01,0.025,-0.022,101.0,111.0,100.0,13.3,1505.3,328.3,-0.7,1.8,2470.283,13.33,0.026,338.2
2020-01-12T05:46:03,42.805,6.029,0.01,0.06,-0.048,102.0,111.0,99.0,13.4,1505.3,327.2,-0.7,1.8,2470.309,13.33,0.06,9.5
2020-01-12T05:49:03,42.805,6.029,-0.01,0.029,-0.035,102.0,111.0,99.0,13.3,1505.4,327.7,-0.7,1.8,2470.3,13.34,0.03,341.0
2020-01-12T05:52:03,42.805,6.029,0.024,0.028,-0.032,101.0,111.0,100.0,13.4,1505.4,326.4,-0.7,1.8,2470.293,13.34,0.036,40.6
2020-01-12T05:55:03,42.805,6.029,0.009,0.023,-0.009,102.0,112.0,101.0,13.3,1505.4,328.3,-0.7,1.8,2470.282,13.34,0.024,21.4
2020-01-12T05:58:03,42.805,6.029,-0.001,0.015,-0.01,102.0,111.0,100.0,13.4,1505.4,323.8,-0.7,1.8,2470.332,13.34,0.015,356.2
2020-01-12T06:04:03,42.805,6.029,0.001,0.033,-0.017,102.0,111.0,100.0,13.4,1505.3,327.3,-0.7,1.9,2470.366,13.32,0.033,1.7
2020-01-12T06:07:03,42.805,6.029,0.003,0.017,-0.031,102.0,111.0,100.0,13.4,1505.3,326.0,-0.7,1.8,2470.371,13.33,0.017,10.0
2020-01-12T06:10:03,42.805,6.029,-0.009,0.014,-0.027,103.0,111.0,100.0,13.4,1505.3,325.6,-0.7,1.8,2470.362,13.33,0.016,327.3
2020-01-12T06:13:03,42.805,6.029,0.0,0.028,-0.049,103.0,113.0,102.0,13.3,1505.3,326.3,-0.7,1.8,2470.34,13.33,0.028,0.0
2020-01-12T06:16:03,42.805,6.029,0.024,0.022,-0.044,103.0,111.0,101.0,13.4,1505.3,327.8,-0.7,1.8,2470.361,13.33,0.032,47.5
2020-01-12T06:19:03,42.805,6.029,0.03,0.031,0.004,104.0,112.0,100.0,13.3,1505.3,324.8,-0.7,1.8,2470.37,13.33,0.043,44.1
2020-01-12T06:22:03,42.805,6.029,0.025,0.038,-0.023,102.0,111.0,100.0,13.4,1505.3,326.7,-0.7,1.9,2470.369,13.33,0.045,33.3
2020-01-12T06:25:03,42.805,6.029,0.018,0.007,-0.046,103.0,111.0,100.0,13.4,1505.3,328.1,-0.7,1.8,2470.355,13.33,0.019,68.8
2020-01-12T06:28:03,42.805,6.029,0.012,0.023,-0.03,102.0,112.0,100.0,13.4,1505.3,324.0,-0.7,1.8,2470.359,13.33,0.025,27.6
2020-01-12T06:31:03,42.805,6.029,-0.021,0.028,-0.043,102.0,111.0,100.0,13.4,1505.3,326.4,-0.7,1.8,2470.369,13.33,0.035,323.1
2020-01-12T06:34:03,42.805,6.029,0.02,0.021,-0.044,103.0,112.0,102.0,13.4,1505.4,325.1,-0.7,1.8,2470.364,13.34,0.028,43.6
2020-01-12T06:37:03,42.805,6.029,0.014,0.02,-0.047,104.0,111.0,100.0,13.4,1505.4,326.6,-0.7,1.8,2470.363,13.34,0.024,35.0
2020-01-12T06:40:03,42.805,6.029,0.002,0.026,-0.007,103.0,112.0,99.0,13.4,1505.4,327.0,-0.7,1.8,2470.386,13.34,0.026,4.4
2020-01-12T06:43:03,42.805,6.029,0.015,0.014,-0.027,104.0,110.0,99.0,13.4,1505.4,325.8,-0.7,1.8,2470.355,13.34,0.02,47.0
2020-01-12T06:46:03,42.805,6.029,0.022,0.033,0.002,103.0,110.0,101.0,13.4,1505.4,327.3,-0.7,1.8,2470.354,13.34,0.039,33.7
2020-01-12T06:49:03,42.805,6.029,0.016,0.032,-0.036,102.0,112.0,101.0,13.4,1505.4,323.6,-0.7,1.8,2470.389,13.34,0.035,26.6
2020-01-12T06:52:03,42.805,6.029,0.021,0.018,-0.047,104.0,112.0,101.0,13.4,1505.4,325.9,-0.7,1.8,2470.379,13.34,0.027,49.4
2020-01-12T06:55:03,42.805,6.029,0.007,0.037,-0.035,103.0,112.0,99.0,13.4,1505.4,327.2,-0.7,1.8,2470.354,13.34,0.037,10.7
2020-01-12T06:58:03,42.805,6.029,-0.009,0.01,-0.015,105.0,110.0,103.0,13.4,1505.4,327.0,-0.7,1.9,2470.345,13.34,0.013,318.0
2020-01-12T07:04:03,42.805,6.029,-0.01,0.012,-0.074,103.0,112.0,100.0,13.4,1505.3,323.5,-0.7,1.8,2470.419,13.32,0.015,320.2
2020-01-12T07:07:03,42.805,6.029,0.01,0.016,0.014,105.0,112.0,100.0,13.4,1505.3,322.7,-0.7,1.8,2470.399,13.33,0.018,32.0
2020-01-12T07:10:03,42.805,6.029,0.01,0.03,-0.018,102.0,112.0,102.0,13.4,1505.3,323.7,-0.7,1.8,2470.412,13.33,0.031,18.4
2020-01-12T07:13:03,42.805,6.029,0.018,0.014,-0.024,102.0,111.0,100.0,13.4,1505.4,322.7,-0.7,1.8,2470.403,13.34,0.022,52.1
2020-01-12T07:16:03,42.805,6.029,-0.043,0.015,-0.065,106.0,111.0,99.0,13.4,1505.4,325.3,-0.7,1.8,2470.39,13.34,0.045,289.2
2020-01-12T07:19:03,42.805,6.029,-0.039,0.017,-0.081,102.0,111.0,100.0,13.3,1505.4,327.5,-0.7,1.8,2470.426,13.34,0.042,293.5
2020-01-12T07:22:03,42.805,6.029,0.001,0.025,-0.042,106.0,111.0,100.0,13.4,1505.4,328.0,-0.7,1.8,2470.408,13.34,0.025,2.3
2020-01-12T07:25:03,42.805,6.029,-0.032,-0.007,-0.075,104.0,110.0,99.0,13.4,1505.4,324.7,-0.7,1.8,2470.411,13.34,0.032,257.7
2020-01-12T07:28:03,42.805,6.029,-0.029,0.026,-0.047,104.0,110.0,100.0,13.4,1505.4,326.7,-0.7,1.8,2470.44,13.34,0.038,311.9
2020-01-12T07:31:03,42.805,6.029,0.0,0.026,-0.037,104.0,110.0,101.0,13.3,1505.4,324.5,-0.7,1.8,2470.435,13.34,0.026,0.0
2020-01-12T07:34:03,42.805,6.029,0.008,-0.001,-0.022,103.0,111.0,100.0,13.4,1505.4,328.3,-0.7,1.9,2470.433,13.34,0.008,97.1
2020-01-12T07:37:03,42.805,6.029,0.011,0.015,-0.038,102.0,110.0,101.0,13.4,1505.4,326.7,-0.7,1.9,2470.419,13.34,0.018,36.3
2020-01-12T07:40:03,42.805,6.029,-0.017,0.008,-0.006,104.0,111.0,101.0,13.4,1505.4,323.9,-0.7,1.9,2470.43,13.34,0.018,295.2
2020-01-12T07:43:03,42.805,6.029,-0.007,0.02,-0.041,103.0,110.0,101.0,13.4,1505.4,324.1,-0.7,1.8,2470.415,13.35,0.021,340.7
2020-01-12T07:46:03,42.805,6.029,-0.016,0.017,-0.047,103.0,110.0,100.0,13.4,1505.4,323.0,-0.7,1.8,2470.417,13.35,0.023,316.7
2020-01-12T07:49:03,42.805,6.029,-0.06,0.012,-0.067,103.0,110.0,100.0,13.4,1505.4,326.5,-0.7,1.9,2470.448,13.35,0.061,281.3
2020-01-12T07:52:03,42.805,6.029,-0.012,0.013,-0.029,104.0,110.0,100.0,13.3,1505.4,324.4,-0.7,1.9,2470.421,13.35,0.017,317.3
2020-01-12T07:55:03,42.805,6.029,0.003,0.008,-0.056,103.0,110.0,100.0,13.4,1505.4,326.4,-0.7,1.8,2470.424,13.35,0.008,20.6
2020-01-12T07:58:03,42.805,6.029,0.022,0.014,0.01,101.0,110.0,102.0,13.4,1505.4,328.3,-0.7,1.8,2470.38,13.35,0.026,57.5
2020-01-12T08:04:03,42.805,6.029,-0.022,0.01,-0.016,103.0,108.0,99.0,13.4,1505.3,324.2,-0.7,1.8,2470.455,13.33,0.024,294.4
2020-01-12T08:07:03,42.805,6.029,-0.003,0.007,-0.051,101.0,110.0,101.0,13.4,1505.4,324.0,-0.7,1.8,2470.452,13.34,0.007,336.8
2020-01-12T08:10:03,42.805,6.029,-0.005,-0.009,-0.036,104.0,110.0,102.0,13.4,1505.4,324.9,-0.8,1.8,2470.426,13.34,0.01,209.1
2020-01-12T08:13:03,42.805,6.029,-0.041,0.0,-0.053,103.0,109.0,99.0,13.3,1505.4,323.5,-0.7,1.8,2470.415,13.34,0.041,270.0
2020-01-12T08:16:03,42.805,6.029,-0.014,0.006,-0.033,101.0,107.0,102.0,13.4,1505.4,327.7,-0.7,1.8,2470.413,13.35,0.015,293.2
2020-01-12T08:19:03,42.805,6.029,-0.018,0.023,-0.046,101.0,110.0,100.0,13.4,1505.4,328.1,-0.7,1.9,2470.455,13.35,0.029,322.0
2020-01-12T08:22:03,42.805,6.029,0.0,0.001,-0.023,102.0,109.0,100.0,13.3,1505.4,326.3,-0.7,1.8,2470.412,13.35,0.001,0.0
2020-01-12T08:25:03,42.805,6.029,0.001,0.024,-0.018,103.0,110.0,100.0,13.4,1505.4,325.1,-0.7,1.8,2470.462,13.35,0.024,2.4
2020-01-12T08:28:03,42.805,6.029,0.028,0.017,0.008,102.0,109.0,100.0,13.3,1505.4,325.0,-0.7,1.8,2470.428,13.35,0.032,58.7
2020-01-12T08:31:03,42.805,6.029,0.008,0.031,-0.022,103.0,108.0,100.0,13.4,1505.4,325.9,-0.7,1.8,2470.423,13.35,0.032,14.5
2020-01-12T08:34:03,42.805,6.029,0.04,0.015,-0.007,102.0,110.0,101.0,13.4,1505.4,327.2,-0.7,1.8,2470.404,13.35,0.042,69.4
2020-01-12T08:37:03,42.805,6.029,0.02,0.012,-0.036,104.0,110.0,101.0,13.4,1505.4,323.9,-0.7,1.9,2470.442,13.35,0.023,59.0
2020-01-12T08:40:03,42.805,6.029,0.001,0.025,-0.029,104.0,112.0,101.0,13.4,1505.4,323.6,-0.7,1.9,2470.429,13.35,0.025,2.3
2020-01-12T08:43:03,42.805,6.029,-0.036,0.016,-0.063,103.0,108.0,99.0,13.3,1505.4,325.9,-0.7,1.8,2470.42,13.35,0.039,294.0
2020-01-12T08:46:03,42.805,6.029,0.005,0.02,-0.008,101.0,109.0,100.0,13.3,1505.4,326.9,-0.7,1.8,2470.434,13.35,0.02,14.0
2020-01-12T08:49:03,42.805,6.029,0.016,0.01,-0.01,104.0,109.0,103.0,13.4,1505.4,326.0,-0.7,1.8,2470.45,13.35,0.018,58.0
2020-01-12T08:52:03,42.805,6.029,0.008,0.014,-0.032,102.0,109.0,100.0,13.4,1505.4,324.6,-0.7,1.8,2470.415,13.35,0.016,29.7
2020-01-12T08:55:03,42.805,6.029,-0.037,0.004,-0.089,102.0,110.0,100.0,13.4,1505.4,324.6,-0.7,1.8,2470.397,13.35,0.037,276.2
2020-01-12T08:58:03,42.805,6.029,-0.062,0.028,-0.088,101.0,111.0,100.0,13.4,1505.4,326.5,-0.7,1.8,2470.407,13.35,0.068,294.3
2020-01-12T09:04:03,42.805,6.029,-0.015,0.033,-0.057,102.0,110.0,99.0,13.4,1505.3,325.4,-0.7,1.8,2470.425,13.33,0.036,335.6
2020-01-12T09:07:03,42.805,6.029,-0.028,0.017,-0.054,100.0,109.0,100.0,13.3,1505.4,323.6,-0.7,1.8,2470.443,13.34,0.032,301.3
2020-01-12T09:10:03,42.805,6.029,-0.038,0.013,-0.05,103.0,110.0,100.0,13.4,1505.4,328.4,-0.7,1.8,2470.428,13.34,0.04,288.9
2020-01-12T09:13:03,42.805,6.029,-0.013,0.019,-0.042,101.0,109.0,100.0,13.3,1505.4,326.6,-0.7,1.8,2470.432,13.34,0.023,325.6
2020-01-12T09:16:03,42.805,6.029,0.021,0.015,-0.008,101.0,109.0,98.0,13.3,1505.4,326.0,-0.7,1.8,2470.501,13.35,0.025,54.5
2020-01-12T09:19:03,42.805,6.029,-0.011,0.006,-0.04,104.0,109.0,99.0,13.3,1505.4,325.0,-0.7,1.8,2470.458,13.35,0.012,298.6
2020-01-12T09:22:03,42.805,6.029,-0.008,0.018,-0.015,102.0,109.0,100.0,13.4,1505.4,328.3,-0.7,1.8,2470.428,13.35,0.019,336.0
2020-01-12T09:25:03,42.805,6.029,0.017,0.033,-0.028,102.0,111.0,101.0,13.3,1505.4,323.2,-0.7,1.8,2470.453,13.35,0.037,27.3
2020-01-12T09:28:03,42.805,6.029,0.012,0.031,-0.012,102.0,108.0,100.0,13.4,1505.4,323.8,-0.7,1.8,2470.433,13.35,0.033,21.2
2020-01-12T09:31:03,42.805,6.029,0.004,0.017,-0.009,103.0,107.0,101.0,13.4,1505.4,325.2,-0.8,1.8,2470.417,13.35,0.017,13.2
2020-01-12T09:34:03,42.805,6.029,0.0,0.028,0.02,102.0,110.0,100.0,13.3,1505.4,325.1,-0.7,1.8,2470.419,13.35,0.028,0.0
2020-01-12T09:37:03,42.805,6.029,-0.009,0.021,-0.039,102.0,108.0,100.0,13.4,1505.4,325.3,-0.7,1.8,2470.466,13.35,0.022,336.8
2020-01-12T09:40:03,42.805,6.029,-0.015,0.032,-0.059,101.0,109.0,99.0,13.4,1505.4,323.8,-0.7,1.8,2470.428,13.35,0.035,334.9
2020-01-12T09:43:03,42.805,6.029,-0.028,0.01,-0.037,102.0,109.0,101.0,13.4,1505.4,325.0,-0.7,1.9,2470.432,13.35,0.029,289.6
2020-01-12T09:46:03,42.805,6.029,0.024,0.009,-0.018,104.0,109.0,100.0,13.4,1505.4,328.1,-0.7,1.8,2470.415,13.35,0.025,69.4
2020-01-12T09:49:03,42.805,6.029,0.007,0.019,-0.021,104.0,108.0,101.0,13.3,1505.4,325.9,-0.7,1.8,2470.432,13.35,0.02,20.2
2020-01-12T09:52:03,42.805,6.029,-0.015,0.021,-0.049,103.0,109.0,99.0,13.4,1505.4,325.2,-0.7,1.9,2470.419,13.35,0.025,324.5
2020-01-12T09:55:03,42.805,6.029,-0.021,0.016,-0.046,103.0,109.0,101.0,13.4,1505.4,327.1,-0.7,1.8,2470.409,13.35,0.026,307.3
2020-01-12T09:58:03,42.805,6.029,-0.001,0.009,-0.046,103.0,108.0,99.0,13.3,1505.4,326.3,-0.7,1.8,2470.432,13.35,0.009,353.7
2020-01-12T10:04:03,42.805,6.029,-0.017,0.027,-0.019,110.0,109.0,100.0,13.4,1505.3,326.0,-0.7,1.8,2470.436,13.33,0.031,327.8
2020-01-12T10:07:03,42.805,6.029,-0.027,0.025,-0.054,102.0,108.0,100.0,13.3,1505.3,323.8,-0.7,1.9,2470.416,13.33,0.036,312.8